Date String (YYYY-MM-DD hh:mm:ss) UTC,Instrument flags,absolute air pressure of the measurement (hPa),sample flow rate (lpm),inlet stack bypass flow (lpm),air temperature of the measurement (°C),ambient temperature measured by the external sensor (°C),aerosol sample conditioner tube jacket temperature (°C),OPC LED temperature (°C),internal box temperature (°C),relative humidity of the measurement (%),span deviation,mass concentration of particles derived from Lorenz-Mie calculation of OPC scattering (μg/m³),mass concentration of particles derived from Lorenz-Mie calculation of OPC scattering (μg/m³),mass concentration of particles derived from Lorenz-Mie calculation of OPC scattering (μg/m³)
DateTimeUTC,F1_M11,P_M11,Q1_M11,Q2_M11,T1_M11,T2_M11,T3_M11,T4_M11,T5_M11,U1_M11,ZSPAN_M11,X0_M11,X2_M11,X1_M11
2023-09-28 20:00:00,SystemResetWarning,0826.3,5.02,000.00,028.0,024.6,000.0,036.3,029.7,11.7,0000.0,0013.92,0005.34,0004.57
2023-09-28 20:01:00,SystemResetWarning,0826.2,4.99,000.00,028.0,024.9,000.0,036.3,029.6,12.0,0000.0,0013.75,0005.40,0004.59
2023-09-28 20:02:00,SystemResetWarning,0826.3,5.00,000.00,027.9,025.3,000.0,036.3,029.6,12.5,0000.0,0014.91,0005.44,0004.59
2023-09-28 20:03:00,SystemResetWarning,0826.2,4.99,000.00,027.9,025.8,000.0,036.3,029.6,11.8,0000.0,0015.06,0005.47,0004.59
2023-09-28 20:04:00,SystemResetWarning,0826.2,5.00,000.00,028.0,026.2,000.0,036.3,029.8,11.9,0001.2,0015.52,0005.50,0004.58
2023-09-28 20:05:00,SystemResetWarning,0826.3,5.00,000.00,028.0,026.6,000.0,036.4,029.9,12.3,0003.6,0015.10,0005.52,0004.58
2023-09-28 20:06:00,SystemResetWarning,0826.3,5.00,000.00,028.1,026.9,000.0,036.4,030.0,12.9,0003.6,0014.60,0005.50,0004.57
2023-09-28 20:07:00,SystemResetWarning,0826.2,4.99,000.00,028.1,026.4,000.0,036.4,030.0,12.0,0003.7,0014.46,0005.52,0004.59
2023-09-28 20:08:00,SystemResetWarning,0826.3,4.99,000.00,028.1,024.8,000.0,036.3,029.8,11.9,0002.0,0014.87,0005.55,0004.59
2023-09-28 20:09:00,SystemResetWarning,0826.2,5.02,000.00,028.0,024.5,000.0,036.3,029.7,11.9,0000.0,0014.09,0005.55,0004.58
2023-09-28 20:10:00,SystemResetWarning,0826.2,4.99,000.00,028.0,024.9,000.0,036.3,029.6,12.1,0000.0,0013.42,0005.50,0004.57
2023-09-28 20:11:00,SystemResetWarning,0826.2,5.00,000.00,027.9,025.3,000.0,036.3,029.6,12.3,0000.7,0013.12,0005.47,0004.56
2023-09-28 20:12:00,SystemResetWarning,0826.3,5.00,000.00,028.0,025.8,000.0,036.3,029.7,12.2,0000.0,0012.99,0005.43,0004.54
2023-09-28 20:13:00,SystemResetWarning,0826.2,5.00,000.00,028.0,026.2,000.0,036.4,029.8,11.9,0000.0,0012.12,0005.39,0004.52
2023-09-28 20:14:00,SystemResetWarning,0826.3,5.00,000.00,028.0,026.6,000.0,036.4,029.9,12.0,0000.0,0012.14,0005.37,0004.52
2023-09-28 20:15:00,SystemResetWarning,0826.2,4.99,000.00,028.1,026.7,000.0,036.4,030.0,11.7,0000.0,0012.03,0005.33,0004.51
2023-09-28 20:16:00,SystemResetWarning,0826.2,4.98,000.00,028.1,025.5,000.0,036.4,029.9,11.9,0000.0,0012.98,0005.29,0004.51
2023-09-28 20:17:00,SystemResetWarning,0826.2,5.01,000.00,028.0,024.4,000.0,036.3,029.7,12.3,0000.0,0013.86,0005.29,0004.51
2023-09-28 20:18:00,SystemResetWarning,0826.2,5.01,000.00,028.0,024.6,000.0,036.3,029.6,12.7,0000.0,0014.17,0005.31,0004.50
2023-09-28 20:19:00,SystemResetWarning,0826.1,4.99,000.00,027.9,024.9,000.0,036.3,029.5,13.1,0000.0,0014.06,0005.30,0004.49
2023-09-28 20:20:00,SystemResetWarning,0826.1,5.01,000.00,027.9,025.4,000.0,036.3,029.6,12.5,0001.2,0014.73,0005.30,0004.49
2023-09-28 20:21:00,SystemResetWarning,0826.1,5.00,000.00,027.9,025.8,000.0,036.3,029.6,12.3,0000.5,0015.08,0005.29,0004.48
2023-09-28 20:22:00,SystemResetWarning,0826.1,5.00,000.00,028.0,026.2,000.0,036.3,029.8,12.3,0000.0,0014.78,0005.27,0004.47
2023-09-28 20:23:00,SystemResetWarning,0826.1,5.00,000.00,028.0,026.6,000.0,036.4,029.9,12.8,0000.0,0014.75,0005.26,0004.47
2023-09-28 20:24:00,SystemResetWarning,0826.1,5.00,000.00,028.1,026.8,000.0,036.4,030.0,13.0,0000.2,0015.35,0005.30,0004.47
2023-09-28 20:25:00,SystemResetWarning,0826.2,4.98,000.00,028.1,025.7,000.0,036.4,029.8,12.6,0004.3,0015.38,0005.31,0004.48
2023-09-28 20:26:00,SystemResetWarning,0826.2,5.02,000.00,028.0,024.5,000.0,036.3,029.6,12.3,0000.0,0014.95,0005.26,0004.47
2023-09-28 20:27:00,SystemResetWarning,0826.1,5.01,000.00,027.9,024.7,000.0,036.3,029.6,11.8,0000.0,0014.09,0005.25,0004.46
2023-09-28 20:28:00,SystemResetWarning,0826.0,5.00,000.00,027.9,025.0,000.0,036.3,029.5,12.0,0000.0,0013.34,0005.25,0004.45
2023-09-28 20:29:00,SystemResetWarning,0826.0,5.00,000.00,027.9,025.5,000.0,036.3,029.6,12.1,0000.0,0012.89,0005.24,0004.45
2023-09-28 20:30:00,SystemResetWarning,0826.0,5.00,000.00,027.9,025.9,000.0,036.3,029.7,12.0,0000.0,0012.65,0005.25,0004.45
2023-09-28 20:31:00,SystemResetWarning,0826.0,5.00,000.00,027.9,026.3,000.0,036.3,029.8,12.2,0000.0,0011.58,0005.17,0004.44
2023-09-28 20:32:00,SystemResetWarning,0826.0,4.99,000.00,028.0,026.7,000.0,036.4,029.9,12.0,0000.0,0011.07,0005.15,0004.43
2023-09-28 20:33:00,SystemResetWarning,0825.9,5.00,000.00,028.1,026.9,000.0,036.4,030.0,12.3,0000.0,0011.00,0005.15,0004.43
2023-09-28 20:34:00,SystemResetWarning,0825.9,4.98,000.00,028.1,025.8,000.0,036.4,029.9,12.9,0000.0,0010.40,0005.13,0004.43
2023-09-28 20:35:00,SystemResetWarning,0825.9,5.01,000.00,028.0,024.5,000.0,036.3,029.7,12.0,0000.0,0009.83,0005.06,0004.42
2023-09-28 20:36:00,SystemResetWarning,0825.9,5.01,000.00,028.0,024.6,000.0,036.3,029.6,12.0,0000.0,0009.18,0005.03,0004.41
2023-09-28 20:37:00,SystemResetWarning,0825.9,5.00,000.00,027.9,024.9,000.0,036.3,029.5,12.6,0000.0,0009.27,0005.05,0004.40
2023-09-28 20:38:00,SystemResetWarning,0825.9,5.00,000.00,027.9,025.4,000.0,036.3,029.6,12.6,0000.0,0009.03,0005.06,0004.41
2023-09-28 20:39:00,SystemResetWarning,0825.9,5.00,000.00,027.9,025.8,000.0,036.3,029.6,12.7,0000.0,0009.30,0005.05,0004.42
2023-09-28 20:40:00,SystemResetWarning,0825.9,5.00,000.00,027.9,026.2,000.0,036.3,029.7,12.8,0000.0,0009.47,0005.04,0004.40
2023-09-28 20:41:00,SystemResetWarning,0825.9,4.99,000.00,028.0,026.6,000.0,036.4,029.8,12.3,0000.0,0009.47,0004.99,0004.39
2023-09-28 20:42:00,SystemResetWarning,0825.9,4.99,000.00,028.1,026.9,000.0,036.4,029.9,12.5,0000.0,0009.64,0004.99,0004.39
2023-09-28 20:43:00,SystemResetWarning,0825.9,4.98,000.00,028.1,026.0,000.0,036.4,029.9,12.5,0000.0,0009.99,0004.99,0004.41
2023-09-28 20:44:00,SystemResetWarning,0825.8,5.01,000.00,028.0,024.6,000.0,036.3,029.7,12.6,0000.0,0010.50,0004.97,0004.41
2023-09-28 20:45:00,SystemResetWarning,0825.8,5.01,000.00,028.0,024.6,000.0,036.3,029.6,12.5,0000.0,0010.49,0004.96,0004.42
2023-09-28 20:46:00,SystemResetWarning,0825.8,4.99,000.00,027.9,025.0,000.0,036.3,029.5,12.5,0000.0,0010.60,0004.97,0004.40
2023-09-28 20:47:00,SystemResetWarning,0825.8,4.99,000.00,027.9,025.4,000.0,036.3,029.5,11.9,0000.0,0011.03,0004.99,0004.41
2023-09-28 20:48:00,SystemResetWarning,0825.8,5.00,000.00,027.9,025.9,000.0,036.3,029.7,12.4,0000.0,0011.28,0004.99,0004.42
2023-09-28 20:49:00,SystemResetWarning,0825.8,5.01,000.00,028.0,026.3,000.0,036.3,029.8,11.6,0000.0,0011.43,0004.98,0004.41
2023-09-28 20:50:00,SystemResetWarning,0825.8,4.99,000.00,028.0,026.7,000.0,036.3,029.9,11.4,0000.0,0011.39,0004.96,0004.40
2023-09-28 20:51:00,SystemResetWarning,0825.8,5.00,000.00,028.1,026.9,000.0,036.4,030.0,11.8,0000.0,0011.12,0004.92,0004.40
2023-09-28 20:52:00,SystemResetWarning,0825.7,4.98,000.00,028.1,026.1,000.0,036.4,029.9,11.8,0000.0,0011.11,0004.93,0004.40
2023-09-28 20:53:00,SystemResetWarning,0825.7,5.01,000.00,028.0,024.7,000.0,036.3,029.7,12.3,0000.0,0010.97,0004.99,0004.42
2023-09-28 20:54:00,SystemResetWarning,0825.7,5.01,000.00,028.0,024.6,000.0,036.3,029.6,11.9,0000.0,0010.85,0005.03,0004.42
2023-09-28 20:55:00,SystemResetWarning,0825.6,5.01,000.00,027.9,025.0,000.0,036.3,029.5,11.7,0000.0,0010.62,0005.07,0004.43
2023-09-28 20:56:00,SystemResetWarning,0825.6,4.99,000.00,027.9,025.4,000.0,036.3,029.6,12.0,0000.0,0010.71,0005.09,0004.44
2023-09-28 20:57:00,SystemResetWarning,0825.7,5.00,000.00,027.9,025.8,000.0,036.3,029.7,12.4,0000.0,0010.80,0005.09,0004.45
2023-09-28 20:58:00,SystemResetWarning,0825.7,5.00,000.00,028.0,026.3,000.0,036.3,029.8,12.4,0000.0,0010.75,0005.09,0004.45
2023-09-28 20:59:00,SystemResetWarning,0825.7,5.01,000.00,028.0,026.6,000.0,036.3,029.9,12.6,0000.0,0010.39,0005.08,0004.46
